TRANSPORTER-15 CJ (66746 NORAD) Tracking and Keplerian Element Data

This shows tracking and keplerian element data for the satellite.

Feedback or suggestion? Click here.




ElementValue
Catalog66746
NameTRANSPORTER-15 CJ
Epoch Orbit310
Epoch Day353.20003709
Epoch Year2025
RAAN64.8535
Inclination97.4422
Eccentricity9.62E-05
Argument of Perigee234.0891
Mean Anonmoly126.0254
Mean Motion15.17416472
Decay Rate2.728E-05
L11 66746U 25276CJ 25353.20003709 .00002728 00000+0 13980-3 0 9992
L22 66746 97.4422 64.8535 0000962 234.0891 126.0254 15.17416472 3106



Live tracking and technical data element details for TRANSPORTER-15 CJ (NORAD 66746). TRANSPORTER-15 CJ can be tracked NOW for your location showing map with azimuth and elevation plus other details from your city location.







IsCatalogInMostPopularTable: catalog: 66746, numindb: 15
Update: records affected: 1



GetName: 66746 TRANSPORTER-15 CJ

Hit Count: updated at: Mon, 20 Apr 2026 09:38:20 GMT